Showing default

ALOS-4, 60182

Orbit data source: Space-Track

ALOS-4, 60182 is a payload satellite owned by JAXA (JP) in SSO that was launched on Mon, 01 Jul 2024 UTC via a H3-22S launch vehicle from the Tanegashima Space Center (TNSTA). Payload-class satellites include a variety of spacecraft equipped with specific instruments for various scientific and technological missions. These include communications satellites like Starlink; space stations such as the ISS; scientific satellites like the Hubble; Earth observation satellites from companies like Planet Labs, Umbra, and HawkEye 360; GPS; miniature CubeSats for education and research; and military/defense satellites.

Loading next visibility...
Identifier
60182, 2024-123A
Orbit
SSO
Country
Flag of JPJP / JPN
Related business
Manufacturer
MELCO
Mission
Operational Civil Imaging
Bus & Motor
ALOS, AOCS
Mass
2,900 kg wet, ~2,500 kg dry
Launch date (UTC)
2024-07-01 (1 year ago)
Launch vehicle
H3-22S
Launch site
Tanegashima Space Center (TNSTA)
Object type
Payload
Rocket body
Debris
Shape & HBR
Box + 2 Pan, 11.0 m
Radar Cross Section
36.926 m², Large (>1 m²)

Expand to show TLE details & history
Last TLE update: 11 hours ago

TLE from 11 hours ago
0 ALOS-4
1 60182U 24123A   25354.54015322  .00001375  00000-0  19094-3 0  9992
2 60182  97.9224  89.2761 0001391 101.5093 258.6275 14.79476103 79461
Epoch: 2025-12-20T12:57Z
TLE epoch observation values (Epoch: 2025-12-20T12:57:49.238Z)
Latitude
0.00001°
Longitude
165.45545°
Altitude
634.191 km
Speed
7.541 km/s
True Right ascension
05h 57m 06s
True Declination
0° 00' 00"
Sunlit
Object was in full shadow at epoch
Visualization orbit readout
Latitude
Unknown
Longitude
Unknown
Altitude
Unknown
Speed
Unknown
Apparent Right ascension
Unknown
Apparent Declination
Unknown
Sunlit
N/A
Visualization observer readout
Local Sidereal Time
22:31:33
Azimuth
Unknown
Elevation
Unknown
Doppler factor
Unknown
Orbital elements
Apogee altitude
628.995 km
Perigee altitude
627.046 km
Semi-major axis
7,006.158 km
Eccentricity
0.00014
Inclination
97.9224°
RAAN
89.2761°
Arg. of periapsis
101.5093°
True anomaly
258.61187°
Mean anomaly
258.6275°
Eccentric anomaly
258.61969°
Mean motion
3.70104 °/min
Orbital period
97.27 mins
BSTAR
0.00019094
Loading maneuver chart data...
Computing Atmospheric mass density...
Loading historical data...
Loading historical data...
Loading historical data...
Loading historical data...
Loading historical data...
Loading historical data...
Loading historical data...
Other satellites on launch #123 in the year 2024 (2024-07-01 UTC)

Documentation

Showing up to 5 results
|